Location: Hamilton
(39.3990°N, 84.5610°W)
Time: 04:52:42
(UTC-04:00)

ISS - Visible Passes

Search period start: 12 May 2025 00:00
Search period end: 22 May 2025 00:00
Orbit: 416 x 420 km, 51.6° (Epoch: 12 May)

Date Brightness Start Highest point End Pass type
(mag) Time Alt. Az. Time Alt. Az. Time Alt. Az.
12 May -0.3 00:03:09 10° NNW 00:04:11 11° N 00:05:12 10° N visible
12 May -2.2 21:35:19 10° WSW 21:38:29 39° NNW 21:41:40 10° NE visible
12 May -0.5 23:14:26 10° NW 23:15:59 13° NNW 23:17:33 10° NNE visible
13 May -0.3 00:52:52 10° N 00:53:43 11° N 00:53:43 11° N visible
13 May -0.7 22:25:44 10° NW 22:27:48 15° NNW 22:29:53 10° NNE visible
14 May -0.4 00:05:05 10° N 00:05:44 10° N 00:06:22 10° NNE visible
14 May -0.9 21:37:07 10° WNW 21:39:40 20° NNW 21:42:12 10° NNE visible
14 May -0.4 23:16:51 10° NNW 23:17:28 10° N 23:18:04 10° N visible
15 May -0.4 00:53:15 10° NNW 00:53:59 13° N 00:53:59 13° N visible
15 May -0.5 22:28:08 10° NNW 22:29:12 11° N 22:30:15 10° N visible
16 May -0.7 00:05:33 10° NNW 00:07:10 13° NNE 00:07:36 13° NNE visible
16 May -0.7 21:39:20 10° NW 21:40:56 13° NNW 21:42:32 10° NNE visible
16 May -0.6 23:17:49 10° N 23:18:54 11° N 23:19:58 10° NNE visible
17 May -0.5 00:53:38 10° NNW 00:54:06 13° NNW 00:54:06 13° NNW visible
17 May -0.5 22:29:57 10° N 22:30:35 10° N 22:31:13 10° NNE visible
18 May -1.1 00:05:50 10° NNW 00:07:41 19° N 00:07:41 19° N visible
18 May -0.6 21:41:37 10° NNW 21:42:15 10° N 21:42:54 10° N visible
18 May -1.1 23:18:05 10° NNW 23:20:10 15° NNE 23:21:16 14° NE visible
19 May -0.4 00:54:07 10° NW 00:54:10 10° NW 00:54:10 10° NW visible
19 May -0.9 22:30:18 10° NNW 22:31:52 13° NNE 22:33:27 10° NE visible
20 May -1.3 00:06:10 10° NW 00:07:44 23° NNW 00:07:44 23° NNW visible
20 May -0.8 21:42:30 10° N 21:43:32 11° N 21:44:34 10° NNE visible
20 May -2.0 23:18:18 10° NNW 23:21:12 26° NNE 23:21:19 26° NNE visible
21 May -1.5 22:30:26 10° NNW 22:32:58 19° NNE 22:34:55 13° ENE visible
